This demonstration page uses our WeatherBlox Daily Observations layout. Learn more.

Left ArrowRight Arrow

Hourly Observations for January 12, 2019

Temp ( °F °C ) Dew Point ( °F °C ) Humidity (%) Winds ( mph kmh ) Pressure ( in mb ) Visibility ( mi km ) Precip ( " mm )
12:53 am 00:53 Clear 43 6.1 23 -5 45 45 VRB 7 11 30.29 1026 10 16 0.00 0.00
1:53 am 01:53 Clear 42 5.6 23 -5 47 47 E 5 7 30.30 1026 10 16 0.00 0.00
2:53 am 02:53 Cloudy 42 5.6 25 -3.9 51 51 ENE 5 7 30.30 1026 10 16 0.00 0.00
3:53 am 03:53 Cloudy 43 6.1 23 -5 45 45 ENE 7 11 30.29 1026 10 16 0.00 0.00
4:53 am 04:53 Cloudy 42 5.6 22 -5.6 45 45 E 6 9 30.29 1026 10 16 0.00 0.00
5:53 am 05:53 Cloudy 42 5.6 22 -5.6 45 45 ENE 12 19 30.29 1026 10 16 0.00 0.00
6:50 am 06:50 Cloudy 43 6 21 -6 42 42 E 9 15 30.30 1026 10 16 0.00 0.00
6:53 am 06:53 Cloudy 42 5.6 21 -6.1 43 43 E 9 15 30.30 1026 10 16 0.00 0.00
7:53 am 07:53 Cloudy 42 5.6 21 -6.1 43 43 VRB 7 11 30.31 1026 10 16 0.00 0.00
8:53 am 08:53 Cloudy 42 5.6 21 -6.1 43 43 E 10 17 30.32 1027 10 16 0.00 0.00
9:53 am 09:53 Cloudy 42 5.6 23 -5 47 47 ENE 13 20 30.34 1027 10 16 0.00 0.00
10:53 am 10:53 Cloudy 43 6.1 24 -4.4 47 47 ENE 10 17 30.32 1027 10 16 0.00 0.03
11:34 am 11:34 Cloudy 43 6.1 26 -3.3 51 51 ENE 14 22 30.30 1026 10 16 0.00 0.00
11:41 am 11:41 Cloudy 43 6.1 26 -3.3 51 51 E 12 19 30.30 1026 10 16 0.00 0.00
11:53 am 11:53 Cloudy 43 6.1 27 -2.8 53 53 E 13 20 30.30 1026 10 16 0.00 0.00
12:53 pm 12:53 Cloudy 43 6.1 30 -1.1 60 60 E 10 17 30.27 1025 10 16 0.00 0.00
1:20 pm 13:20 Cloudy 43 6.1 31 -0.6 63 63 E 9 15 30.24 1024 10 16 0.00 0.00
1:53 pm 13:53 Cloudy 43 6.1 32 0 65 65 ENE 12 19 30.24 1024 10 16 0.00 0.03
2:03 pm 14:03 Cloudy 43 6.1 32 0 65 65 E 9 15 30.24 1024 10 16 0.00 0.00
2:42 pm 14:42 Cloudy 44 6.7 32 0 63 63 E 9 15 30.21 1023 10 16 0.00 0.00
2:53 pm 14:53 Cloudy 44 6.7 32 0 63 63 E 9 15 30.20 1023 10 16 0.00 0.00
3:11 pm 15:11 Cloudy 43 6.1 32 0 65 65 E 10 17 30.21 1023 10 16 0.00 0.00
3:53 pm 15:53 Cloudy 43 6.1 32 0 65 65 E 8 13 30.21 1023 10 16 0.00 0.00
4:53 pm 16:53 Cloudy with Light Rain 42 5.6 34 1.1 73 73 E 10 17 30.19 1022 10 16 0.00 0.03
5:53 pm 17:53 Cloudy with Light Rain 42 5.6 33 0.6 71 71 E 9 15 30.20 1023 10 16 0.00 0.03
6:53 pm 18:53 Cloudy with Light Rain 39 3.9 36 2.2 89 89 ENE 9 15 30.18 1022 10 16 0.03 0.76
7:53 pm 19:53 Cloudy with Light Rain 38 3.3 36 2.2 93 93 E 12 19 30.17 1022 10 16 0.01 0.25
8:53 pm 20:53 Cloudy with Rain 38 3.3 36 2.2 93 93 E 10 17 30.16 1021 6 10 0.04 1.02
9:00 pm 21:00 Cloudy with Light Rain 38 3.3 36 2.2 93 93 E 7 11 30.21 1023 4 6 0.02 0.51
9:39 pm 21:39 Cloudy with Rain 38 3.3 37 2.8 97 97 E 10 17 30.18 1022 3 5 0.10 2.54
9:53 pm 21:53 Cloudy with Light Rain 38 3.3 38 3.3 100 100 E 8 13 30.15 1021 5 8 0.12 3.05
10:53 pm 22:53 Cloudy with Light Rain 38 3.3 37 2.8 97 97 ENE 9 15 30.12 1020 8 13 0.09 2.29
11:53 pm 23:53 Cloudy with Light Rain 38 3.3 38 3.3 100 100 NE 7 11 30.14 1021 6 10 0.11 2.79

Powered by AerisWeather